FW8459 Weather Reports


time (UTC)temp
F
wind
direction
speed
knots
gust
knots
rain 1hr
in
rain 24hr
in
rain mn
in
humidity
%
barometer
mb
20260906215942 39 337 0.0 0.0 0.00 0.00 0.00 99 1025.1
20260906215437 39 296 0.0 0.0 0.00 0.00 0.00 99 1025.1
20260906214935 38 310 0.0 0.0 0.00 0.00 0.00 99 1024.9
20260906214434 37 301 0.0 0.0 0.00 0.00 0.00 99 1025.0
20260906213933 37 358 0.0 0.0 0.00 0.00 0.00 99 1025.0
20260906213429 37 313 0.0 0.0 0.00 0.00 0.00 99 1024.9
20260906212926 36 258 0.0 0.0 0.00 0.00 0.00 99 1025.1
20260906212422 36 258 0.0 0.0 0.00 0.00 0.00 99 1024.7
20260906211921 36 298 0.0 0.0 0.00 0.00 0.00 99 1024.5
20260906211416 36 295 0.0 0.0 0.00 0.00 0.00 99 1024.5
20260906210911 35 301 0.0 0.0 0.00 0.00 0.00 99 1024.3
20260906210407 35 312 0.0 0.0 0.00 0.00 0.00 99 1024.4
20260906205902 35 290 0.0 0.0 0.00 0.00 0.00 99 1024.3
20260906205357 35 315 0.0 0.0 0.00 0.00 0.00 99 1024.4
20260906204853 34 314 0.0 0.0 0.00 0.00 0.00 99 1023.9
20260906204352 34 322 0.0 0.0 0.00 0.00 0.00 99 1024.1
20260906203852 34 323 0.0 0.0 0.00 0.00 0.00 99 1023.9
20260906203347 34 306 0.0 0.0 0.00 0.00 0.00 99 1023.8
20260906202844 33 335 0.0 0.0 0.00 0.00 0.00 99 1023.7
20260906202344 33 314 0.0 0.0 0.00 0.00 0.00 99 1023.7
20260906201843 33 311 0.0 0.0 0.00 0.00 0.00 99 1023.5
20260906201338 32 298 0.0 0.0 0.00 0.00 0.00 99 1023.8
20260906200833 33 293 0.0 0.0 0.00 0.00 0.00 99 1023.5
20260906200330 33 294 0.0 0.0 0.00 0.00 0.00 99 1023.5
20260906195824 33 303 0.0 0.0 0.00 0.00 0.00 99 1023.4
20260906195321 33 317 0.0 0.0 0.00 0.00 0.00 99 1023.5
20260906194817 33 305 0.0 0.0 0.00 0.00 0.00 99 1023.2
20260906194312 33 322 0.0 0.0 0.00 0.00 0.00 99 1023.2
20260906193807 34 313 0.0 0.0 0.00 0.00 0.00 99 1023.2
20260906193301 33 323 0.0 0.9 0.00 0.00 0.00 99 1022.9
20260906192757 33 321 0.0 0.0 0.00 0.00 0.00 99 1023.0
20260906192252 33 304 0.0 0.0 0.00 0.00 0.00 99 1023.2
20260906191750 34 306 0.0 0.0 0.00 0.00 0.00 99 1022.9
20260906191246 34 323 0.0 0.0 0.00 0.00 0.00 99 1023.1
20260906190740 34 315 0.0 0.0 0.00 0.00 0.00 99 1022.9
20260906190234 34 301 0.0 0.0 0.00 0.00 0.00 99 1023.0
20260906185733 34 319 0.0 0.0 0.00 0.00 0.00 99 1023.0
20260906185232 34 316 0.0 0.0 0.00 0.00 0.00 99 1023.0
20260906184727 34 321 0.0 0.9 0.00 0.00 0.00 99 1023.0
20260906184223 34 316 0.0 0.0 0.00 0.00 0.00 99 1022.8
20260906183718 34 306 0.0 0.0 0.00 0.00 0.00 99 1023.0
20260906183215 34 298 0.0 0.0 0.00 0.00 0.00 99 1023.2
20260906182714 34 293 0.0 0.0 0.00 0.00 0.00 99 1022.9
20260906182210 34 289 0.0 0.0 0.00 0.00 0.00 99 1023.0
20260906181705 35 284 0.0 0.0 0.00 0.00 0.00 99 1023.1
20260906181202 35 284 0.0 0.0 0.00 0.00 0.00 99 1023.1
20260906180702 35 292 0.0 0.0 0.00 0.00 0.00 99 1022.9
20260906180157 35 293 0.0 0.0 0.00 0.00 0.00 99 1023.0
20260906175655 35 293 0.0 0.0 0.00 0.00 0.00 99 1022.9
20260906175150 36 287 0.0 0.0 0.00 0.00 0.00 99 1023.0
20260906174648 36 272 0.0 0.0 0.00 0.00 0.00 99 1023.0
20260906174143 36 298 0.0 0.0 0.00 0.00 0.00 99 1023.1
20260906173639 36 303 0.0 0.0 0.00 0.00 0.00 99 1023.2
20260906173134 36 298 0.0 0.0 0.00 0.00 0.00 99 1023.1
20260906172633 35 299 0.0 0.0 0.00 0.00 0.00 99 1023.1
20260906172129 35 298 0.0 0.0 0.00 0.00 0.00 99 1023.0
20260906171628 35 293 0.0 0.0 0.00 0.00 0.00 99 1023.2
20260906171124 36 289 0.0 0.0 0.00 0.00 0.00 99 1023.6
20260906170620 36 287 0.0 0.0 0.00 0.00 0.00 99 1023.4
20260906170119 36 293 0.0 0.0 0.00 0.00 0.00 99 1023.5
20260906165616 36 291 0.0 0.0 0.00 0.00 0.00 99 1023.5
20260906165111 36 290 0.0 0.0 0.00 0.00 0.00 99 1023.6
20260906164610 36 273 0.0 0.0 0.00 0.00 0.00 99 1023.5
20260906164106 36 267 0.0 0.0 0.00 0.00 0.00 99 1023.7
20260906163601 36 290 0.0 0.0 0.00 0.00 0.00 99 1023.7
20260906163057 37 274 0.0 0.0 0.00 0.00 0.00 99 1023.8
20260906162554 37 285 0.0 0.0 0.00 0.00 0.00 99 1023.8
20260906162049 37 290 0.0 0.0 0.00 0.00 0.00 99 1023.8
20260906161544 37 275 0.0 0.0 0.00 0.00 0.00 99 1023.5
20260906161043 36 251 0.0 0.0 0.00 0.00 0.00 99 1023.4
20260906160542 36 284 0.0 0.0 0.00 0.00 0.00 98 1023.5
20260906160040 36 282 0.0 0.0 0.00 0.00 0.00 99 1023.7
20260906155538 36 292 0.0 0.0 0.00 0.00 0.00 99 1023.8
20260906155035 36 293 0.0 0.0 0.00 0.00 0.00 99 1023.7
20260906154530 36 292 0.0 0.0 0.00 0.00 0.00 99 1023.7
20260906154028 36 298 0.0 0.0 0.00 0.00 0.00 99 1023.6
20260906153527 37 282 0.0 0.0 0.00 0.00 0.00 98 1023.8
20260906153023 37 287 0.0 0.0 0.00 0.00 0.00 98 1023.6
20260906152517 37 289 0.0 0.0 0.00 0.00 0.00 98 1023.7
20260906152016 37 291 0.0 0.0 0.00 0.00 0.00 98 1023.8
20260906151512 37 284 0.0 0.0 0.00 0.00 0.00 98 1023.7
20260906151007 37 284 0.0 0.0 0.00 0.00 0.00 98 1023.6
20260906150502 37 283 0.0 0.0 0.00 0.00 0.00 98 1023.5
20260906150001 37 285 0.0 0.0 0.00 0.00 0.00 98 1023.7
20260906145456 37 288 0.0 0.0 0.00 0.00 0.00 98 1023.9
20260906144955 38 281 0.0 0.0 0.00 0.00 0.00 98 1023.8
20260906144451 38 292 0.0 0.0 0.00 0.00 0.00 98 1023.7
20260906143946 38 292 0.0 0.0 0.00 0.00 0.00 98 1023.5
20260906143441 38 285 0.0 0.0 0.00 0.00 0.00 98 1023.4
20260906142937 38 279 0.0 0.0 0.00 0.00 0.00 98 1023.5
20260906142437 39 295 0.0 0.0 0.00 0.00 0.00 98 1023.5
20260906141932 39 283 0.0 0.0 0.00 0.00 0.00 98 1023.6
20260906141432 39 270 0.0 0.0 0.00 0.00 0.00 98 1023.7
20260906140926 39 260 0.0 0.0 0.00 0.00 0.00 98 1023.6
20260906140421 39 265 0.0 0.0 0.00 0.00 0.00 98 1023.4
20260906135919 39 293 0.0 0.0 0.00 0.00 0.00 97 1023.4
20260906135418 39 292 0.0 0.0 0.00 0.00 0.00 98 1023.5
20260906134914 40 298 0.0 0.0 0.00 0.00 0.00 98 1023.5
20260906134409 39 309 0.0 0.0 0.00 0.00 0.00 98 1023.4
20260906133904 40 301 0.0 0.0 0.00 0.00 0.00 97 1023.6
20260906133400 40 291 0.0 0.0 0.00 0.00 0.00 97 1023.5
20260906132855 40 309 0.0 0.0 0.00 0.00 0.00 98 1023.5
20260906132350 40 301 0.0 0.0 0.00 0.00 0.00 97 1023.4
20260906131846 40 296 0.0 0.0 0.00 0.00 0.00 97 1023.2
20260906131341 40 299 0.0 0.0 0.00 0.00 0.00 97 1023.4
20260906130837 40 305 0.0 0.0 0.00 0.00 0.00 97 1023.2
20260906130336 40 294 0.0 0.0 0.00 0.00 0.00 96 1023.5
20260906125835 40 294 0.0 0.0 0.00 0.00 0.00 96 1023.5
20260906125332 41 292 0.0 0.0 0.00 0.00 0.00 96 1023.5
20260906124827 41 277 0.0 0.0 0.00 0.00 0.00 96 1023.6
20260906124324 40 300 0.0 0.0 0.00 0.00 0.00 96 1023.2
20260906123822 41 299 0.0 0.0 0.00 0.00 0.00 96 1023.4
20260906123318 41 279 0.0 0.0 0.00 0.00 0.00 96 1023.4
20260906122817 41 282 0.0 0.0 0.00 0.00 0.00 96 1023.2
20260906122312 41 288 0.0 0.0 0.00 0.00 0.00 96 1023.6
20260906121809 41 308 0.0 0.0 0.00 0.00 0.00 95 1023.4
20260906121305 41 268 0.0 0.0 0.00 0.00 0.00 95 1023.5
20260906120801 41 268 0.0 0.0 0.00 0.00 0.00 94 1023.2
20260906120257 41 281 0.0 0.0 0.00 0.00 0.00 94 1023.2
20260906115753 41 280 0.0 0.0 0.00 0.01 0.01 94 1023.4
20260906115248 41 284 0.0 0.0 0.00 0.01 0.01 94 1023.2
20260906114747 41 291 0.0 0.0 0.00 0.01 0.01 93 1023.1
20260906114242 41 289 0.0 0.0 0.00 0.01 0.01 93 1023.1
20260906113738 41 281 0.0 0.0 0.00 0.01 0.01 93 1022.9
20260906113237 42 286 0.0 0.0 0.00 0.01 0.01 93 1023.0
20260906112737 42 296 0.0 0.0 0.00 0.01 0.01 93 1023.4
20260906112233 43 278 0.0 0.0 0.00 0.01 0.01 93 1022.9
20260906111732 43 265 0.0 0.9 0.00 0.01 0.01 93 1023.0
20260906111227 43 256 0.0 0.9 0.00 0.01 0.01 93 1023.0
20260906110722 43 279 0.0 0.0 0.00 0.01 0.01 92 1023.1
20260906110218 44 282 0.0 0.0 0.00 0.01 0.01 92 1022.6
20260906105717 44 260 0.0 0.0 0.00 0.01 0.01 91 1022.7
20260906105213 44 270 0.0 0.0 0.00 0.01 0.01 91 1022.8
20260906104713 45 281 0.0 0.0 0.00 0.01 0.01 91 1022.8
20260906104212 45 283 0.0 0.0 0.00 0.01 0.01 91 1022.6
20260906103710 45 241 0.0 0.0 0.00 0.01 0.01 91 1022.7
20260906103205 45 215 0.0 0.9 0.00 0.01 0.01 90 1022.7
20260906102701 46 220 0.0 0.0 0.00 0.01 0.01 90 1022.6
20260906102159 46 223 0.0 0.9 0.00 0.01 0.01 90 1022.5
20260906101654 46 263 0.0 0.0 0.00 0.01 0.01 90 1022.4
20260906101149 46 222 0.0 0.0 0.00 0.01 0.01 90 1022.6
20260906100644 46 254 0.0 0.0 0.00 0.01 0.01 90 1022.4
20260906100139 46 251 0.0 0.0 0.00 0.01 0.01 90 1022.4
20260906095634 46 249 0.0 0.9 0.00 0.01 0.01 90 1022.6
20260906095129 46 302 0.0 0.0 0.00 0.01 0.01 89 1022.3
20260906094628 46 276 0.0 0.0 0.00 0.01 0.01 89 1022.3
20260906094124 47 281 0.0 0.0 0.00 0.01 0.01 88 1022.4
20260906093620 46 266 0.0 0.0 0.00 0.01 0.01 87 1022.2
20260906093114 47 279 0.0 0.0 0.00 0.01 0.01 87 1022.2
20260906092609 47 281 0.0 0.0 0.00 0.01 0.01 86 1022.1
20260906092104 48 289 0.0 0.0 0.00 0.01 0.01 86 1022.3
20260906091600 48 264 0.0 0.0 0.00 0.01 0.01 86 1022.4
20260906091056 48 259 0.0 0.0 0.00 0.01 0.01 86 1022.1
20260906090551 48 248 0.0 0.9 0.00 0.01 0.01 86 1022.1
20260906090046 49 247 0.9 0.9 0.00 0.01 0.01 85 1022.1
20260906085545 49 288 0.9 0.9 0.00 0.01 0.01 85 1022.2
20260906085044 49 275 0.0 0.0 0.00 0.01 0.01 84 1022.0
20260906084539 49 238 0.0 0.9 0.00 0.01 0.01 84 1021.8
20260906084037 49 244 0.9 0.9 0.00 0.01 0.01 84 1021.9
20260906083534 50 245 0.9 0.9 0.00 0.01 0.01 84 1022.0
20260906083033 50 241 0.9 0.9 0.00 0.01 0.01 83 1021.9
20260906082528 50 239 0.9 0.9 0.00 0.01 0.01 82 1021.9
20260906082024 51 282 0.0 0.0 0.00 0.01 0.01 82 1022.0
20260906081520 51 194 0.9 0.9 0.00 0.01 0.01 81 1021.9
20260906081016 51 237 0.9 0.9 0.00 0.01 0.01 81 1021.8
20260906080512 51 227 0.9 1.7 0.00 0.01 0.01 81 1021.9
20260906080008 52 235 1.7 1.7 0.00 0.01 0.01 81 1021.3
20260906075502 52 216 0.9 1.7 0.00 0.01 0.01 80 1021.4
20260906074956 52 239 0.9 1.7 0.00 0.01 0.01 79 1021.4
20260906074451 53 193 0.9 1.7 0.00 0.01 0.01 78 1021.4
20260906073949 53 240 0.9 0.9 0.00 0.01 0.01 78 1021.1
20260906073444 54 197 3.5 4.3 0.00 0.01 0.01 77 1021.3
20260906072941 54 210 0.9 1.7 0.00 0.01 0.01 76 1021.2
20260906072436 55 200 2.6 2.6 0.00 0.01 0.01 75 1021.2
20260906071932 55 187 2.6 4.3 0.00 0.01 0.01 74 1021.0
20260906071427 56 260 2.6 4.3 0.00 0.01 0.01 73 1020.9
20260906070923 57 171 2.6 2.6 0.00 0.01 0.01 72 1020.8
20260906070419 57 295 0.9 1.7 0.00 0.01 0.01 72 1020.7
20260906065915 57 222 1.7 1.7 0.00 0.01 0.01 72 1020.9
20260906065409 57 229 1.7 4.3 0.00 0.01 0.01 71 1020.8
20260906064905 58 173 3.5 5.2 0.00 0.01 0.01 71 1020.7
20260906064401 58 290 4.3 5.2 0.00 0.01 0.01 70 1020.5
20260906063901 58 260 2.6 5.2 0.00 0.01 0.01 70 1020.7
20260906063356 58 203 1.7 1.7 0.00 0.01 0.01 71 1020.6
20260906062851 59 226 1.7 4.3 0.00 0.01 0.01 70 1020.3
20260906062350 59 200 4.3 5.2 0.00 0.01 0.01 69 1020.3
20260906061846 59 223 3.5 5.2 0.00 0.01 0.01 69 1020.4
20260906061342 59 222 1.7 1.7 0.00 0.01 0.01 70 1020.3
20260906060836 59 215 1.7 1.7 0.00 0.01 0.01 69 1020.2
20260906060334 59 260 1.7 1.7 0.00 0.01 0.01 69 1020.3
20260906055830 59 255 1.7 2.6 0.00 0.01 0.01 69 1020.2
20260906055325 59 208 1.7 1.7 0.00 0.01 0.01 69 1020.3
20260906054821 59 263 2.6 2.6 0.00 0.01 0.01 69 1020.4
20260906054315 59 163 0.9 1.7 0.00 0.01 0.01 68 1020.3
20260906053812 59 184 0.9 2.6 0.00 0.01 0.01 69 1020.0
20260906053307 59 249 2.6 4.3 0.00 0.01 0.01 68 1020.0
20260906052802 60 228 2.6 2.6 0.00 0.01 0.01 68 1020.0
20260906052259 60 221 0.9 1.7 0.00 0.01 0.01 69 1020.2
20260906051756 60 206 2.6 4.3 0.00 0.01 0.01 67 1020.4
20260906051255 60 246 3.5 4.3 0.00 0.01 0.01 68 1020.2
20260906050750 60 233 3.5 5.2 0.00 0.01 0.01 67 1020.2
20260906050246 60 226 1.7 2.6 0.00 0.01 0.01 66 1020.0
20260906045744 61 221 1.7 2.6 0.00 0.01 0.01 66 1020.0
20260906045239 60 231 2.6 2.6 0.00 0.01 0.01 67 1020.3
20260906044735 60 262 1.7 2.6 0.00 0.01 0.01 68 1020.3
20260906044230 59 268 0.9 0.9 0.00 0.01 0.01 68 1020.3
20260906043726 61 231 0.9 1.7 0.00 0.01 0.01 67 1020.2
20260906043222 60 10 1.7 2.6 0.00 0.01 0.01 68 1020.0
20260906042721 60 220 2.6 2.6 0.00 0.01 0.01 68 1020.2
20260906042220 60 280 1.7 1.7 0.00 0.01 0.01 68 1020.0
20260906041716 60 265 1.7 1.7 0.00 0.01 0.01 67 1019.8
20260906041211 61 172 2.6 2.6 0.00 0.01 0.01 64 1019.7
20260906040707 61 232 0.9 1.7 0.00 0.01 0.01 66 1019.8
20260906040201 60 197 2.6 4.3 0.00 0.01 0.01 67 1019.9
20260906035657 59 185 2.6 2.6 0.00 0.01 0.01 68 1020.0
20260906035153 60 198 2.6 2.6 0.00 0.01 0.01 67 1019.8
20260906034653 60 245 1.7 4.3 0.00 0.01 0.01 67 1019.6
20260906034148 60 229 2.6 2.6 0.00 0.01 0.01 67 1019.7
20260906033643 60 202 3.5 4.3 0.00 0.01 0.01 67 1019.9
20260906033138 60 222 1.7 2.6 0.00 0.01 0.01 68 1019.7
20260906032635 59 237 2.6 2.6 0.00 0.01 0.01 69 1019.6
20260906032134 59 209 0.9 1.7 0.00 0.01 0.01 68 1019.8
20260906031630 60 263 0.9 0.9 0.00 0.01 0.01 65 1019.7
20260906031125 60 162 3.5 5.2 0.00 0.01 0.01 66 1019.6
20260906030624 61 241 1.7 2.6 0.00 0.01 0.01 65 1019.8
20260906030120 59 217 2.6 2.6 0.00 0.01 0.01 68 1019.8
20260906025619 59 227 1.7 1.7 0.00 0.01 0.01 68 1019.7
20260906025118 59 213 1.7 2.6 0.00 0.01 0.01 68 1019.7
20260906024613 61 256 2.6 2.6 0.00 0.01 0.01 64 1020.2
20260906024107 60 284 0.0 0.9 0.00 0.01 0.01 67 1020.2
20260906023603 60 221 1.7 1.7 0.00 0.01 0.01 66 1020.3
20260906023057 58 205 2.6 2.6 0.00 0.01 0.01 68 1020.3
20260906022553 59 289 2.6 2.6 0.00 0.01 0.01 67 1019.9
20260906022048 59 209 4.3 6.1 0.00 0.01 0.01 65 1019.9
20260906021544 59 226 2.6 4.3 0.00 0.01 0.01 66 1019.7
20260906021042 59 308 1.7 2.6 0.00 0.01 0.01 68 1019.7
20260906020537 58 194 2.6 2.6 0.00 0.01 0.01 69 1020.0
20260906020037 57 246 3.5 4.3 0.00 0.01 0.01 70 1020.2
20260906015536 58 191 3.5 4.3 0.00 0.01 0.01 68 1020.2
20260906015036 59 227 2.6 4.3 0.00 0.01 0.01 67 1020.3
20260906014531 58 165 1.7 1.7 0.00 0.01 0.01 70 1020.4
20260906014026 59 205 2.6 4.3 0.00 0.01 0.01 69 1020.5
20260906013522 59 207 3.5 4.3 0.00 0.01 0.01 69 1020.5
20260906013017 59 197 2.6 4.3 0.00 0.01 0.01 67 1020.6
20260906012512 58 221 2.6 2.6 0.00 0.01 0.01 68 1020.6
20260906012012 57 249 3.5 4.3 0.00 0.01 0.01 69 1020.7
20260906011508 57 219 3.5 4.3 0.00 0.01 0.01 72 1020.7
20260906011002 55 219 2.6 4.3 0.00 0.01 0.01 71 1020.8
20260906010457 57 197 2.6 2.6 0.00 0.01 0.01 69 1020.8
20260906005954 56 203 0.9 1.7 0.00 0.01 0.01 71 1020.7
20260906005453 55 186 3.5 5.2 0.00 0.01 0.01 72 1020.7
20260906004951 55 220 1.7 1.7 0.00 0.01 0.01 73 1020.6
20260906004446 56 188 2.6 2.6 0.00 0.01 0.01 72 1020.5
20260906003941 57 173 1.7 1.7 0.00 0.01 0.01 71 1020.7
20260906003436 56 208 1.7 2.6 0.00 0.01 0.01 72 1020.6
20260906002931 55 197 2.6 2.6 0.00 0.01 0.01 74 1020.9
20260906002431 54 269 3.5 4.3 0.00 0.01 0.01 75 1020.5
20260906001926 54 189 1.7 1.7 0.00 0.01 0.01 76 1020.0
20260906001422 54 220 1.7 1.7 0.00 0.01 0.01 76 1020.4
20260906000917 53 215 2.6 2.6 0.00 0.01 0.01 76 1020.4
20260906000412 54 145 2.6 2.6 0.00 0.01 0.01 75 1020.3
20260905235907 53 232 0.9 1.7 0.00 0.01 0.01 77 1020.2
20260905235401 54 220 2.6 4.3 0.00 0.01 0.01 77 1020.2
20260905234856 54 224 3.5 6.1 0.00 0.01 0.01 75 1019.9
20260905234351 53 260 2.6 2.6 0.00 0.01 0.01 77 1019.9
20260905233846 52 185 4.3 5.2 0.00 0.01 0.01 77 1019.6
20260905233341 52 155 4.3 6.1 0.00 0.01 0.01 76 1019.9
20260905232841 51 186 2.6 4.3 0.00 0.01 0.01 78 1019.7
20260905232337 51 194 3.5 4.3 0.00 0.01 0.01 78 1019.4
20260905231832 52 197 3.5 7.0 0.00 0.01 0.01 78 1019.6
20260905231333 52 223 1.7 2.6 0.00 0.01 0.01 79 1019.7
20260905230830 51 286 1.7 1.7 0.00 0.01 0.01 80 1019.5
20260905230327 51 257 2.6 2.6 0.00 0.01 0.01 81 1019.7
20260905225826 51 226 2.6 2.6 0.00 0.01 0.01 82 1019.4
20260905225322 50 189 3.5 5.2 0.00 0.01 0.01 82 1019.8
20260905224822 50 219 0.0 0.9 0.00 0.01 0.01 82 1019.8
20260905224318 51 212 2.6 2.6 0.00 0.01 0.01 81 1019.8
20260905223812 52 224 3.5 4.3 0.00 0.01 0.01 78 1019.4
20260905223310 52 213 0.9 1.7 0.00 0.01 0.01 78 1019.1
20260905222805 52 123 0.9 1.7 0.00 0.01 0.01 77 1019.1
20260905222306 51 229 2.6 4.3 0.00 0.01 0.01 79 1019.4
20260905221800 51 230 2.6 2.6 0.00 0.01 0.01 78 1019.5
20260905221256 51 181 2.6 2.6 0.00 0.01 0.01 78 1019.4
20260905220752 50 187 2.6 4.3 0.00 0.01 0.01 79 1019.3
20260905220248 50 183 1.7 1.7 0.00 0.01 0.01 79 1019.4